Location: Ammerl�gen
(47.2167°N, 9.6000°E)
Time: 12:37:05
(UTC+00:00)

Cosmos 676 Rocket - Pass Details

Date: 30 July 2021
Orbit: 755 x 783 km, 74.0° (Epoch: 26 September)

Event Time Altitude Azimuth Distance (km) Brightness Sun altitude
Exits shadow 03:13:11 - 244° (WSW) 2,484 6.0 -7.2°
Reaches altitude 10° 03:13:38 10° 246° (WSW) 2,338 5.9 -7.1°
Maximum altitude 03:18:10 28° 305° (NW) 1,445 5.3 -6.5°
Drops below altitude 10° 03:22:44 10° 4° (N) 2,349 7.1 -5.9°
Sets 03:25:29 0° 16° (NNE) 3,279 8.2 -5.5°
